Wind_Speed
28 27 27 28 28 28 27 27 27 26 25 23 23 22 21 21 20 21 21 21 21 22 22 22 22 22 22 22 23 23 23 24 24 25 26 26 26 27 28 28 28 28 27 27
29 29 30 30 30 29 29 29 29 29 27 26 25 24 23 23 22 22 23 24 24 24 24 23 24 24 24 25 25 25 26 26 26 27 27 27 27 28 29 29 29 30 29 28
31 31 31 32 31 30 30 31 31 30 28 27 26 25 24 24 24 24 24 25 26 26 26 27 27 26 26 27 27 27 27 28 28 28 28 29 29 29 29 29 28 29 29 29
32 32 34 31 31 30 30 31 31 32 31 29 27 26 26 26 26 26 26 26 27 27 28 29 30 29 28 29 29 30 30 30 30 30 30 30 30 30 30 29 28 29 30 30
34 35 35 33 32 31 31 32 32 32 32 31 30 29 29 29 29 29 28 28 29 30 31 31 32 31 30 31 31 32 32 32 32 32 32 32 32 32 31 30 30 31 31 32
35 35 36 34 32 31 31 31 31 32 32 32 32 32 31 31 31 31 29 29 30 31 32 33 33 33 33 33 33 34 33 33 32 32 33 33 34 33 33 32 32 32 32 33
36 36 35 34 33 32 31 30 30 31 31 32 32 32 32 32 32 32 32 32 32 32 32 33 33 34 33 33 33 34 34 33 33 34 34 34 34 34 34 34 34 34 34 34
36 36 35 33 33 32 31 30 31 30 31 31 32 33 33 33 33 33 33 33 34 34 34 34 35 35 34 33 33 33 33 33 33 34 34 33 33 33 33 33 34 34 34 35
35 35 34 33 32 32 32 31 31 31 31 32 32 32 33 33 33 34 34 34 34 34 34 34 35 35 34 34 34 33 33 33 33 33 34 34 34 33 33 34 35 35 35 35
34 34 33 33 32 32 32 32 32 32 33 33 33 33 33 33 33 34 33 34 34 34 35 34 34 35 35 34 34 34 33 32 33 33 33 33 34 35 36 36 36 37 36 35
33 33 33 32 32 32 32 32 33 34 34 33 32 32 32 32 32 32 32 32 33 33 34 35 35 34 34 34 33 33 33 33 33 33 33 33 34 35 36 35 36 35 35 34
32 31 31 31 32 32 32 32 32 33 34 33 32 31 31 31 31 31 32 32 32 33 33 34 34 34 34 34 34 33 33 33 32 32 33 34 34 35 35 34 34 34 34 34
32 31 32 32 32 32 32 32 32 32 33 33 32 31 31 31 31 31 32 32 32 32 32 32 32 33 33 33 33 33 32 32 32 32 32 33 34 33 33 32 32 33 34 34
31 31 32 32 32 31 31 31 32 32 31 31 31 31 31 31 31 32 32 31 31 32 32 32 33 33 33 33 32 32 31 31 31 31 32 32 32 31 31 31 32 33 33 34
29 30 30 31 30 30 31 31 31 30 30 30 30 30 31 31 31 31 31 31 31 31 31 32 32 33 33 33 32 32 31 30 30 30 31 31 31 30 30 30 31 32 32 32
26 27 28 29 30 31 31 31 30 30 30 30 30 31 31 31 31 30 30 30 31 31 31 31 31 31 32 32 32 31 31 31 31 31 31 30 30 30 29 29 29 30 30 30
27 28 28 29 30 31 31 31 30 30 30 31 31 31 31 31 31 30 30 31 31 31 30 30 30 30 30 30 30 30 29 30 30 30 29 29 29 29 28 28 28 28 28 28
26 27 29 29 29 30 30 30 30 29 30 30 31 30 29 30 30 30 30 31 31 30 30 30 30 30 30 30 30 30 29 29 29 29 28 28 28 27 27 27 27 26 24 24
25 25 27 28 28 29 30 30 30 30 30 30 29 29 28 29 29 30 30 30 30 30 30 30 30 30 30 30 28 28 28 28 27 27 27 27 27 27 27 26 25 25 25 25
23 24 25 25 26 27 28 29 29 29 29 28 28 28 28 29 29 29 28 28 27 27 28 28 28 28 27 27 26 26 26 26 26 26 25 25 25 24 24 24 25 25 25 25
20 20 21 21 22 23 24 25 26 25 25 25 26 26 26 26 26 25 25 25 25 26 26 25 25 24 24 24 24 24 24 24 24 24 23 22 22 21 21 22 22 22 22 22
19 19 19 19 20 20 21 21 22 22 22 22 22 22 22 22 21 21 22 22 22 23 23 23 22 22 22 22 22 21 21 21 21 21 21 20 20 20 20 20 21 21 21 21
16 17 18 18 18 18 19 19 19 20 20 19 19 19 19 19 19 19 19 19 19 19 19 19 19 19 19 19 18 18 19 19 19 19 19 19 19 20 20 20 21 21 21 21
15 15 16 16 16 16 16 16 16 17 17 17 17 17 17 17 17 18 18 17 17 17 17 17 17 18 18 17 18 19 19 19 18 18 18 18 19 19 19 20 21 21 21 22
14 14 14 14 14 13 13 13 13 13 14 15 16 16 16 16 16 16 16 15 16 16 16 17 17 18 18 17 17 18 18 18 17 17 17 18 19 19 20 20 21 21 21 21
12 12 13 13 12 12 12 12 13 13 13 14 14 15 15 15 15 16 16 16 16 16 16 17 17 17 17 18 18 18 18 18 18 18 18 18 18 19 19 20 21 21 21 22
12 12 12 12 12 11 12 12 12 12 13 13 13 13 14 15 15 16 16 17 17 17 17 17 18 18 17 17 17 17 17 17 18 18 19 19 19 20 20 21 21 22 22 22
Wind_Direction
255 254 253 254 255 258 261 264 266 268 271 270 269 270 269 269 269 268 268 267 271 272 272 273 273 275 276 277 278 278 278 279 280 281 280 279 280 278 275 274 272 270 270 270
255 254 254 255 255 257 259 262 265 267 269 269 269 268 268 269 269 268 270 270 270 274 273 273 274 274 277 278 278 279 280 279 280 282 283 281 281 280 278 276 274 272 273 272
256 255 256 255 256 258 259 261 263 265 267 268 268 266 266 267 267 268 270 270 272 275 277 277 276 277 277 277 277 277 278 279 280 281 282 281 282 282 282 280 277 274 273 272
256 256 255 257 257 259 260 261 262 263 264 265 265 265 266 268 269 270 270 270 271 273 275 278 278 278 278 278 277 277 277 278 279 280 280 280 281 281 280 278 276 275 273 272
257 258 260 259 259 261 262 261 262 263 263 263 263 265 266 269 270 271 271 272 272 273 275 276 276 276 277 279 279 278 278 277 277 277 279 280 281 280 278 277 275 274 274 273
258 261 263 263 261 262 263 262 262 262 262 262 262 263 265 268 270 272 273 273 272 272 273 275 276 277 280 281 282 280 281 279 277 277 278 278 279 280 279 276 274 273 272 273
259 261 263 264 263 264 264 263 263 263 263 262 262 264 266 267 269 271 271 273 274 273 273 275 277 279 281 283 283 282 282 281 279 278 278 278 277 277 276 275 275 274 273 272
258 260 261 263 263 264 264 263 263 263 263 263 262 263 265 267 268 270 271 271 272 273 274 275 276 278 280 281 281 281 281 281 281 279 278 277 276 277 276 276 275 275 274 273
258 259 260 261 263 264 264 265 264 264 264 265 265 264 266 268 269 270 270 271 271 273 274 276 277 279 279 279 279 280 281 280 280 280 280 277 276 275 275 276 277 277 276 276
258 257 259 260 261 263 264 265 265 265 266 266 267 267 268 269 270 271 270 271 273 274 274 275 277 278 279 278 279 280 280 280 279 279 279 277 276 276 276 276 277 278 279 278
257 257 258 259 261 263 266 266 266 267 269 269 269 269 269 269 269 271 270 271 273 274 274 275 277 277 279 279 278 279 279 278 279 278 277 277 278 277 277 278 278 280 280 279
256 256 259 260 261 263 265 267 266 266 267 268 268 269 270 269 269 270 273 274 273 274 275 274 275 276 277 279 278 279 280 280 280 279 279 281 281 281 279 279 279 278 278 278
255 256 258 260 262 263 264 265 265 265 267 268 268 268 269 269 269 270 273 273 274 273 274 274 275 276 277 278 279 280 280 280 280 279 280 282 282 282 282 279 279 278 277 277
256 256 258 260 262 263 264 265 267 268 268 268 268 268 269 269 269 271 273 274 274 274 275 275 275 275 277 279 280 280 280 279 278 279 281 283 282 282 281 281 280 279 279 278
256 258 259 260 261 262 263 264 267 268 268 268 269 269 271 271 271 272 274 276 277 277 277 277 277 278 279 280 281 280 279 279 279 280 283 284 285 285 284 283 281 280 280 279
258 259 260 261 260 261 263 264 265 267 269 269 269 270 272 273 273 274 275 275 277 279 279 279 279 279 279 280 281 282 282 281 280 281 283 285 286 286 286 286 285 283 280 278
258 259 260 261 260 261 262 264 265 268 270 270 271 271 272 274 274 275 275 276 277 277 276 277 277 278 279 281 282 282 282 282 282 282 282 283 283 284 285 285 286 284 282 279
259 259 259 260 260 261 263 264 265 268 269 270 271 272 272 273 274 274 275 277 278 278 277 278 278 279 280 281 280 280 281 282 282 283 283 283 283 284 284 284 284 283 285 284
262 261 262 262 260 260 263 265 266 268 270 270 270 270 272 273 275 276 276 276 276 277 278 279 280 281 281 280 279 280 281 281 283 284 283 282 281 282 283 283 283 284 284 284
263 263 265 268 266 265 265 264 267 270 269 269 270 270 272 273 275 276 276 276 277 277 278 279 280 281 281 280 280 280 279 280 281 284 283 282 284 283 283 283 284 284 284 285
262 263 265 268 268 268 268 268 269 271 272 270 271 273 274 275 276 277 277 278 279 279 279 280 281 282 282 280 280 281 280 280 281 283 283 282 283 285 286 287 287 287 287 287
263 264 266 269 271 271 271 271 271 271 272 274 275 275 276 277 277 277 278 279 279 280 280 282 282 281 282 282 282 281 280 280 280 282 282 283 283 285 287 289 290 291 291 290
262 263 266 269 271 272 273 272 271 271 272 273 274 275 274 274 275 276 278 279 280 282 283 283 283 284 284 284 282 282 283 282 282 282 283 283 284 285 287 288 289 289 288 288
264 262 262 265 269 271 272 272 273 273 273 273 272 272 271 270 271 272 274 278 281 285 286 285 285 284 285 285 285 287 287 286 284 284 284 285 285 285 286 288 289 289 289 290
264 266 267 267 270 272 274 274 274 275 276 275 272 272 272 271 271 272 275 280 284 285 285 285 285 286 286 285 287 289 289 287 287 287 288 288 288 288 289 289 291 293 294 294
266 268 270 269 270 270 271 271 270 271 273 275 275 273 273 275 275 275 276 281 285 285 285 286 286 287 287 286 287 289 291 292 291 290 290 289 290 291 292 293 293 293 295 295
271 269 268 265 266 269 272 271 269 272 275 277 275 275 276 277 277 277 280 283 285 284 283 283 284 285 287 287 287 290 293 293 293 292 292 291 290 290 291 293 293 294 295 295
Height
5835 5837 5838 5839 5841 5842 5843 5844 5845 5846 5847 5849 5849 5850 5851 5851 5852 5852 5853 5853 5853 5853 5853 5853 5853 5853 5852 5851 5851 5850 5850 5849 5848 5847 5846 5845 5844 5843 5842 5841 5840 5840 5840 5840
5828 5829 5830 5831 5833 5835 5836 5837 5838 5839 5841 5842 5842 5843 5844 5845 5846 5846 5847 5847 5847 5847 5847 5847 5847 5846 5845 5845 5844 5843 5842 5841 5840 5839 5838 5837 5836 5835 5833 5833 5832 5832 5831 5832
5820 5821 5822 5823 5826 5827 5829 5830 5831 5832 5834 5834 5835 5836 5837 5838 5839 5839 5840 5840 5840 5840 5840 5840 5839 5839 5838 5837 5836 5835 5834 5834 5832 5831 5830 5829 5827 5826 5825 5824 5823 5823 5823 5823
5811 5813 5814 5819 5818 5820 5821 5822 5823 5825 5826 5827 5828 5829 5830 5831 5832 5832 5832 5832 5832 5832 5832 5832 5832 5831 5830 5829 5828 5827 5826 5825 5824 5823 5822 5820 5819 5817 5816 5815 5815 5815 5815 5815
5802 5803 5805 5809 5810 5811 5812 5814 5816 5817 5818 5819 5820 5821 5823 5823 5824 5824 5824 5824 5824 5823 5823 5823 5823 5822 5821 5820 5819 5818 5817 5816 5815 5813 5812 5811 5809 5808 5806 5806 5805 5806 5806 5805
5794 5795 5796 5801 5802 5802 5804 5805 5807 5808 5809 5810 5812 5813 5815 5815 5815 5815 5815 5815 5815 5815 5814 5814 5813 5812 5811 5810 5809 5808 5807 5806 5804 5803 5802 5801 5800 5798 5797 5796 5796 5796 5796 5796
5785 5785 5787 5791 5792 5793 5796 5799 5799 5799 5800 5802 5803 5804 5805 5805 5806 5806 5806 5806 5806 5805 5805 5805 5804 5803 5801 5800 5799 5798 5797 5795 5794 5793 5792 5791 5790 5789 5788 5787 5786 5786 5786 5785
5776 5777 5781 5782 5783 5785 5787 5788 5789 5790 5791 5792 5793 5794 5795 5795 5796 5797 5797 5796 5796 5796 5795 5795 5794 5793 5792 5791 5790 5788 5786 5785 5784 5783 5782 5780 5779 5778 5777 5777 5776 5776 5775 5775
5768 5771 5771 5772 5774 5775 5777 5778 5779 5781 5782 5783 5783 5784 5785 5786 5786 5786 5787 5786 5786 5786 5785 5785 5784 5783 5782 5781 5779 5778 5777 5775 5774 5773 5771 5770 5769 5768 5768 5766 5766 5765 5764 5763
5758 5760 5762 5764 5765 5766 5768 5768 5770 5771 5772 5773 5774 5774 5775 5775 5776 5776 5776 5776 5776 5775 5775 5774 5773 5773 5771 5770 5769 5768 5767 5765 5764 5763 5761 5760 5759 5758 5757 5756 5755 5754 5752 5752
5749 5752 5754 5755 5756 5758 5758 5759 5760 5761 5762 5763 5764 5765 5765 5766 5766 5766 5766 5766 5766 5765 5764 5764 5763 5762 5761 5760 5759 5758 5756 5755 5754 5753 5752 5750 5749 5748 5746 5745 5744 5743 5742 5741
5741 5743 5745 5747 5748 5749 5750 5750 5751 5752 5753 5754 5755 5755 5756 5756 5757 5757 5757 5756 5756 5755 5754 5753 5753 5752 5751 5750 5749 5748 5746 5745 5744 5743 5742 5740 5739 5737 5735 5734 5733 5732 5731 5731
5732 5734 5736 5738 5739 5740 5741 5742 5742 5743 5744 5744 5745 5746 5747 5747 5748 5748 5747 5746 5746 5745 5744 5743 5743 5742 5741 5740 5739 5738 5737 5736 5734 5733 5732 5731 5729 5727 5725 5724 5722 5721 5721 5720
5723 5725 5727 5729 5730 5731 5732 5733 5734 5734 5735 5736 5736 5737 5738 5738 5738 5738 5738 5737 5737 5736 5735 5734 5733 5732 5732 5731 5729 5728 5727 5726 5725 5724 5723 5721 5719 5717 5716 5714 5713 5711 5710 5710
5715 5717 5719 5720 5722 5723 5724 5725 5726 5726 5727 5727 5728 5728 5729 5729 5729 5729 5729 5728 5728 5727 5726 5725 5724 5723 5722 5721 5721 5720 5719 5718 5716 5715 5713 5712 5710 5708 5707 5705 5704 5702 5701 5700
5708 5710 5711 5713 5714 5715 5716 5717 5718 5719 5719 5719 5719 5720 5720 5720 5720 5720 5720 5720 5719 5718 5718 5717 5716 5715 5714 5713 5712 5711 5710 5709 5708 5706 5705 5703 5701 5700 5698 5697 5695 5693 5692 5691
5701 5703 5704 5705 5706 5707 5708 5709 5710 5710 5711 5711 5711 5711 5711 5712 5711 5711 5711 5710 5710 5709 5709 5708 5707 5706 5705 5704 5703 5702 5701 5700 5699 5697 5696 5695 5693 5692 5690 5689 5687 5685 5684 5683
5694 5695 5696 5697 5698 5699 5700 5701 5701 5702 5702 5702 5703 5703 5703 5703 5703 5703 5702 5701 5701 5700 5700 5699 5698 5697 5696 5695 5695 5694 5693 5691 5690 5689 5688 5687 5685 5684 5682 5680 5679 5677 5676 5675
5687 5688 5689 5689 5690 5691 5692 5693 5693 5694 5694 5694 5695 5695 5695 5695 5694 5694 5693 5693 5692 5692 5691 5691 5690 5689 5688 5686 5686 5685 5684 5683 5682 5681 5680 5678 5677 5676 5675 5673 5672 5670 5669 5668
5680 5681 5681 5682 5682 5683 5684 5685 5685 5686 5686 5686 5686 5687 5686 5686 5686 5685 5684 5684 5684 5683 5683 5682 5681 5680 5679 5678 5677 5676 5676 5675 5674 5673 5672 5671 5670 5668 5667 5666 5665 5663 5662 5661
5674 5675 5675 5675 5676 5676 5677 5677 5678 5678 5678 5678 5679 5678 5678 5678 5677 5677 5677 5676 5676 5675 5674 5674 5673 5672 5671 5670 5669 5669 5668 5668 5667 5666 5665 5664 5663 5661 5660 5659 5658 5656 5655 5654
5669 5669 5669 5670 5670 5670 5670 5671 5671 5671 5672 5672 5671 5671 5671 5671 5671 5671 5670 5670 5669 5668 5668 5667 5666 5665 5664 5663 5662 5662 5661 5661 5660 5659 5658 5657 5656 5655 5654 5652 5651 5650 5649 5647
5664 5664 5664 5664 5665 5665 5665 5665 5665 5665 5666 5666 5665 5665 5665 5665 5665 5665 5665 5664 5663 5662 5662 5661 5660 5659 5658 5657 5656 5656 5655 5654 5653 5652 5652 5651 5650 5649 5647 5646 5645 5644 5642 5640
5659 5659 5659 5660 5660 5660 5660 5660 5660 5660 5660 5660 5660 5660 5660 5660 5660 5660 5660 5659 5658 5657 5656 5655 5654 5654 5653 5652 5651 5650 5649 5648 5647 5646 5645 5644 5643 5642 5641 5639 5638 5636 5635 5633
5654 5654 5655 5655 5655 5655 5655 5655 5656 5656 5656 5656 5655 5655 5655 5655 5655 5655 5655 5654 5654 5653 5651 5650 5649 5648 5647 5646 5645 5644 5643 5642 5641 5640 5638 5637 5636 5635 5634 5632 5631 5629 5628 5626
5651 5651 5651 5651 5651 5651 5651 5651 5651 5651 5651 5651 5651 5651 5650 5650 5650 5650 5649 5649 5648 5647 5646 5645 5644 5642 5641 5640 5639 5639 5637 5636 5635 5633 5632 5631 5630 5628 5627 5626 5624 5623 5621 5619
5647 5647 5647 5647 5647 5647 5647 5647 5647 5647 5647 5647 5646 5646 5646 5646 5645 5645 5644 5643 5642 5641 5640 5639 5638 5637 5636 5635 5634 5633 5632 5630 5629 5628 5626 5625 5623 5622 5621 5619 5618 5616 5614 5613